Погода в Вельске

Погода в Вельске : погода сейчас, прогноз погоды и архив. Всё, что Вы хотите узнать о погоде в Вельске!

Поиск расширенной информации на нашем сайте:

Другие новости

Новости СМИ2

Главная страница сайта

Новости сайта

02.10.2013

Напоминаем, что на нашем новом сайте вы можете получить высокодетализированные прогнозы погоды по пунктам России, СНГ и мира (включающие важные для авиации метеовеличины, такие как направление и скорость ветра, видимость, явления погоды, количество и форма облачности, нижняя и верхняя граница облачности), а также ознакомиться с разнообразными материалами по авиационной метеорологии и подборкой полезных ссылок на эту тему.

Сайт Метеоцентр.Азия посвящён разработке технологий оптимизации авиаметеорологического обслуживания, включая проектирование и перспективное создание нескольких автоматизированных авиаметеорологических систем:
- система выпуска высокодетальных прогностических карт явлений погоды для нижнего воздушного пространства по России и ближнему зарубежью;
- система верификации прогнозов TAF (выпускаемых синоптиками официальных АМСГ РФ и ближнего зарубежья) и AUTOTAF (выпускаемых сайтом Метеоцентр.Азия) - выявление ошибок, онлайн-сопоставление с фактической погодой METAR, автоматическое внесение коррективов в прогнозы при резком отклонении фактической погоды от прогноза, подсчёт оправдываемости прогнозов по элементам и в целом;
- система обработки, анализа и отображения авиаметеорологической информации для применения провайдерами метеорологической информации.


Погода в Вельске - сегодня

Время (UTC), дата Ветер
(°,м/с) 
Видим.   Явления Облачность Т
(°С)
Тd
(°С)
f(%) Тe
(°С)
Pmin
(гПа)
dP
(гПа)
Po
(мм)
O2
(г/м3)
Тmin Tmax R s Состояние
почвы
03 20.04.17 290 (З) 20000 м    3/0 верхняя 
[Ci fib]
-7.7 -10.8 78 -7  1030.4  -0.3  764  318  -8      мокрый или
старый снег
10-40% 
06 20.04.17 030 (СВ) 20000 м    8/0 верхняя 
[Ci fib]
+2.7 -8.7 43 +2  1028.4  -1.6  763  305           
09 20.04.17 120 (ЮВ) 20000 м    10/3 600 м верхняя 
[Cu hum|Ci fib]
+4.4 -12.3 28 +5  1025.8  -2.4  761  303           
12 20.04.17 010 (С) 20000 м    9/3 1000 м верхняя 
[Cu hum|Cs]
+5.5 -12.8 25 +5  1022.5  -3.3  758  301           
15 20.04.17 020 (С) 20000 м    10/0 средняя, верхняя 
[Ac trans|Cs]
+4.5 -12.1 29 +5  1019.7  -2.8  756  301    +6.2       
18 20.04.17 тихо ()   20000 м    ясно 
-1.5 -8.2 60 -2  1017.6  -2.3  755  307           
21 20.04.17 270 (З) 20000 м    ясно 
-3.8 -9.6 64 -3  1015.1  -2.6  753  309           
00 21.04.17 тихо ()   20000 м    ясно 
-6.2 -9.8 76 -6  1012.4  -2.7  751  310           
03 21.04.17 тихо ()   20000 м    ясно 
-5.4 -10.4 68 -5  1009.8  -2.6  749  309  -7.1      мокрый или
старый снег
10-40% 
06 21.04.17 220 (ЮЗ) 20000 м    6/0 верхняя 
[Cs]
+3 -11.6 33 +2  1006.8  -2.6  747  299           
09 21.04.17 230 (ЮЗ) 20000 м    9/4 600 м средняя, верхняя 
[Cu hum|Ac trans|Cs]
+5.6 -10.5 30 +5  1003.5  -3.1  744  295           
12 21.04.17 210 (ЮЗ) 3{10}  20000 м    10/6 570 м средняя 
[Cu hum|Ac As]
+5.3 -7.2 40 +4  1001.5  -2  743  294           
15 21.04.17 240 (ЮЗ) 20000 м    10/10 570 м 
[Sc]
+4.9 -6.4 44 +5  999.7  -1.8  742  294    +6.2       
18 21.04.17 190 (Ю) 4000 м  слаб. снег  10/10 300 м 
[Frnb|Ns]
+0.5 -1.1 89 999.2  -0.7  741  298           
21 21.04.17 180 (Ю) 10 км  слаб. снег  10/10 330 м 
[Frnb|Ns]
+0.5 -1.7 85 -1  996.8  -2.3  739  297           
00 22.04.17 150 (ЮВ) 10 км  слаб. снег  10/10 330 м 
[Frnb|Ns]
-0.1 -1.8 88 -2  994.6  -2.2  738  297           
03 22.04.17 150 (ЮВ) 4000 м  слаб. снег  10/10 300 м 
[Frnb|Ns]
-0.3 -1.5 92 -2  992.5  -2.1  736  297  -0.4    равномерный
мокрый или
старый снег
100% 
06 22.04.17 180 (Ю) 4000 м  слаб. снег  10/10 270 м 
[Frnb|Ns]
+1 -0.6 89 992.1  -0.3  736  295           
09 22.04.17 210 (ЮЗ) 20000 м  {снег}  8/8 600 м 
[Cu med, cong]
+5.1 -0.9 65 +3  992.8  0.8  736  291           
12 22.04.17 220 (ЮЗ) 20000 м  {ливн. осадки, снег}  9/9 570 м кучево-дожд. 
[Cb cap]
+5.8 -2.5 55 +5  993.6  0.8  737  291           
15 22.04.17 260 (З) 20000 м    8/4 600 м кучево-дожд., средняя 
[Cb cap|Ac trans]
+6 -1.2 60 +7  994.1  0.5  737  291    +6.5  0.4     
18 22.04.17 160 (Ю) 20000 м    8/3 300 м средняя 
[Sc|Ac trans]
+3.6 -2.8 63 +4  994.8  0.6  738  294           
21 22.04.17 100 (В) 20000 м    5/0 средняя 
[Ac trans]
+0.4 -3.6 74 +1  994.2  -0.7  737  297           
00 23.04.17 030 (СВ) 20000 м    9/8 300 м средняя 
[Sc|Ac trans]
-0.3 -2.2 87 992.6  -1.7  736  297           
03 23.04.17 060 (СВ) 4000 м  слаб. снег  10/10 270 м 
[Frnb|Ns]
-0.1 -1.7 89 +1  991.4  -1.2  735  297  -1.2    0.0  <0.5  равномерный
мокрый или
старый снег
100% 
Время (UTC), дата Ветер
(°,м/с) 
Видим.   Явления Облачность Т
(°С)
Тd
(°С)
f(%) Тe
(°С)
Pmin
(гПа)
dP
(гПа)
Po
(мм)
O2
(г/м3)
Тmin Tmax R s Состояние
почвы

Для получения пояснительной информации подведите курсор к названию столбца.

ПОГОДА в Вельске - архив

Всё, что Вы хотите узнать о погоде в Вельске - удобно и подробно!

Выберите нужную дату (начиная с 1 января 2015* года) и нажмите кнопку "Найти".
Будут отображены архивные сводки погоды по пункту Вельск, начиная с указанной даты.


Отображать данные в формате CSV (для использования в таблицах Excel)


Внимание! Наш архив погоды предназначен исключительно для личного некоммерческого использования в познавательных целях. Если Вам необходимы официальные справки о состоянии погоды (для производственных, юридических, коммерческих и т.п. целей), обращайтесь в органы Росгидромета.

*Примечание: данная дата относится к архиву по метеостанциям СССР (Россия, СНГ, Балтия).
Архив по метеостанциям Зарубежной Европы и Азии (кроме Китая) хранится 10 дней, по другим регионам земного шара (Китай, Африка, Америка, Австралия, Океания) - 1 день.

Вельск - район местоположения метеостанции


Название, широта, долгота, высота метеостанции:
Вельск 61.1°ш. 42.1°д. 91 м над ур. моря [Российская Федерация]

Дополнительная информация

В oтличие oт бoльшинства пoгoдных сайтoв мы публикуем пoдрoбную метеoинфoрмацию в детальнoм прoфессиoнальнoм фoрмате.

Характеристики температуры и влажнoсти вoздуха измеряются на высoте 2 м в тени вдали oт зданий и деревьев.
Скoрoсть ветра измеряется на высoте 10 м (на урoвне рoста челoвека скoрoсть ветра ниже в 1.5-2 раза). Если метеoстанция нахoдится в гoрoде или в лесу, тo скoрoсть ветра занижена на 2-4 м/с пo сравнению с oткрытым местoм. Скoрoсть ветра над акватoриями крупных рек и oзёр, а также на вершинах хoлмoв на 2-5 м/с выше, чем в oбычных услoвиях.
Атмoсфернoе давление в разных тoчках местнoсти мoжет значительнo oтличаться oт давления на метеoстанции, в зависимoсти oт услoвий рельефа (при пoдъёме на 10 м давление пoнижается примернo на 1 мм рт.ст.).